EW6174 Gardanne FR current weather conditions

sailwx.info

Wind from 071 at 1 knots gusting 5

Air temperature 24.4° C
Dewpoint 14.5° C

Last reported at 2020-Sep-18 08:01 UTC.
Time now 2020-Sep-18 08:17 UTC

Location: N 43°27' E 005°29'.
View on Google Maps.

See reports from other nearby stations

  
Tides and Currents Weather Stations Pressure Air Temp Water Temp Dewpoint Dewpoint Depression Visibility Wind Speed Wind Dir Waves Ship Positions
date/time (UTC)wind fromknots sea level pressurealtimeterstation pressurevisibilityair tempwater tempwave heightnotes
2020-Sep-18 08:01 071 1 gusting 5 24.4
2020-Sep-18 07:46 077 0 gusting 4 23.9
2020-Sep-18 07:31 039 0 gusting 5 22.8
2020-Sep-18 07:15 064 1 gusting 6 22.2
2020-Sep-18 07:01 082 1 gusting 4 21.7
2020-Sep-18 06:46 101 0 gusting 5 21.1
2020-Sep-18 06:31 122 1 gusting 2 21.1
2020-Sep-18 06:15 101 0 gusting 8 20.6
2020-Sep-18 06:00 134 0 gusting 3 20.6
2020-Sep-18 05:45 155 0 gusting 6 20.6
2020-Sep-18 05:30 088 0 gusting 3 20.6
2020-Sep-18 05:15 087 0 gusting 4 21.1
2020-Sep-18 05:02 080 2 gusting 6 21.1
2020-Sep-18 04:46 070 1 gusting 6 21.1
2020-Sep-18 04:30 095 1 gusting 6 20.6
2020-Sep-18 04:16 086 1 gusting 6 20.6
2020-Sep-18 04:01 096 0 gusting 2 20.6
2020-Sep-18 03:47 178 21.1
2020-Sep-18 03:31 178 0 gusting 3 21.1
2020-Sep-18 03:16 144 1 gusting 5 21.1
2020-Sep-18 03:01 111 1 gusting 6 21.1
2020-Sep-18 02:45 088 2 gusting 6 21.1
2020-Sep-18 02:30 130 2 gusting 8 21.1
2020-Sep-18 02:16 051 1 gusting 7 21.1
2020-Sep-18 02:00 103 2 gusting 6 21.1
2020-Sep-18 01:46 066 2 gusting 6 21.1
2020-Sep-18 01:30 097 1 gusting 4 21.7
2020-Sep-18 01:16 120 1 gusting 6 21.7
2020-Sep-18 01:00 070 1 gusting 6 21.1
2020-Sep-18 00:45 075 1 gusting 4 21.1
2020-Sep-18 00:30 082 0 gusting 2 21.1
2020-Sep-18 00:15 215 0 gusting 4 21.1
2020-Sep-18 00:00 115 1 gusting 5 21.1
2020-Sep-17 23:45 098 21.1
2020-Sep-17 23:30 157 0 gusting 3 20.6
2020-Sep-17 23:15 061 0 gusting 3 20.6
2020-Sep-17 23:00 112 0 gusting 3 20.6
2020-Sep-17 22:45 138 20.6
2020-Sep-17 22:30 074 0 gusting 3 20.6
2020-Sep-17 22:16 083 20.6
2020-Sep-17 22:00 096 0 gusting 2 21.1
2020-Sep-17 21:45 093 21.7
2020-Sep-17 21:30 093 22.2
2020-Sep-17 21:15 094 0 gusting 2 22.2
2020-Sep-17 21:00 088 0 gusting 2 22.2
2020-Sep-17 20:45 094 22.2
2020-Sep-17 20:30 092 0 gusting 3 22.2
2020-Sep-17 20:15 087 0 gusting 2 22.2
2020-Sep-17 20:00 080 0 gusting 1 22.2
2020-Sep-17 19:45 080 22.8
2020-Sep-17 19:32 080 23.3
2020-Sep-17 19:18 080 23.3
2020-Sep-17 19:03 076 0 gusting 2 23.9
2020-Sep-17 18:47 165 24.4
2020-Sep-17 18:32 165 25.0
2020-Sep-17 18:16 165 25.6
2020-Sep-17 18:04 167 26.7
2020-Sep-17 17:48 167 0 gusting 2 27.2
2020-Sep-17 17:31 167 27.8
2020-Sep-17 17:17 123 28.3
2020-Sep-17 17:01 148 0 gusting 4 28.9
2020-Sep-17 16:47 298 0 gusting 6 28.9
2020-Sep-17 16:35 182 2 gusting 6 29.4
2020-Sep-17 16:16 169 1 gusting 6 29.4
2020-Sep-17 16:02 184 2 gusting 6 29.4
2020-Sep-17 15:48 216 2 gusting 8 30.0
2020-Sep-17 15:31 200 3 gusting 6 30.0
2020-Sep-17 15:17 244 3 gusting 8 30.0
2020-Sep-17 15:01 149 1 gusting 9 30.6
2020-Sep-17 14:47 205 2 gusting 7 30.6
2020-Sep-17 14:31 194 3 gusting 10 30.0
2020-Sep-17 14:01 244 3 gusting 7 30.0
2020-Sep-17 13:46 211 3 gusting 8 30.0
2020-Sep-17 13:30 177 2 gusting 8 30.0
2020-Sep-17 13:17 148 2 gusting 9 30.0
2020-Sep-17 13:01 275 2 gusting 10 30.0
2020-Sep-17 12:46 215 2 gusting 8 30.6
2020-Sep-17 12:31 194 4 gusting 8 31.1
2020-Sep-17 12:16 170 3 gusting 7 31.1
2020-Sep-17 12:01 302 2 gusting 7 31.1
2020-Sep-17 11:46 266 2 gusting 5 31.7
2020-Sep-17 11:30 260 2 gusting 5 31.1
2020-Sep-17 11:16 248 0 gusting 6 31.1
2020-Sep-17 11:00 268 30.6
2020-Sep-17 10:45 250 2 gusting 6 30.6
2020-Sep-17 10:30 284 1 gusting 3 30.0
2020-Sep-17 10:15 263 0 gusting 5 29.4
2020-Sep-17 10:00 267 0 gusting 5 28.9
2020-Sep-17 09:45 265 1 gusting 3 28.3
2020-Sep-17 09:30 257 1 gusting 5 28.3
2020-Sep-17 09:18 049 1 gusting 6 27.8
2020-Sep-17 09:03 107 26.7
2020-Sep-17 08:46 124 25.6
2020-Sep-17 08:31 073 23.3
2020-Sep-17 08:16 069 0 gusting 3 21.7
2020-Sep-17 08:01 257 20.0
2020-Sep-17 07:46 257 18.3
2020-Sep-17 07:30 257 17.2
2020-Sep-17 07:15 257 16.1
2020-Sep-17 07:00 257 15.6
2020-Sep-17 06:45 257 15.0
2020-Sep-17 06:30 257 15.0
2020-Sep-17 06:15 257 15.0
2020-Sep-17 06:00 257 14.4
2020-Sep-17 05:45 257 14.4
2020-Sep-17 05:30 257 15.0
2020-Sep-17 05:15 257 15.0
2020-Sep-17 05:00 257 15.0
2020-Sep-17 04:47 257 15.0
2020-Sep-17 04:32 257 15.0
2020-Sep-17 04:16 257 15.0
2020-Sep-17 04:02 257 15.0
2020-Sep-17 03:46 257 15.0
2020-Sep-17 03:31 257 15.0
2020-Sep-17 03:17 257 15.0
2020-Sep-17 03:01 257 15.6
2020-Sep-17 02:46 257 15.6
2020-Sep-17 02:31 257 16.1
2020-Sep-17 02:16 257 16.1
2020-Sep-17 02:02 257 16.1
2020-Sep-17 01:45 257 16.1
2020-Sep-17 01:31 257 16.7
2020-Sep-17 01:16 257 16.7
2020-Sep-17 01:00 257 16.7
2020-Sep-17 00:46 257 16.7
2020-Sep-17 00:30 257 16.7
2020-Sep-17 00:15 257 16.7
2020-Sep-17 00:01 257 17.2
2020-Sep-16 23:45 257 17.2
2020-Sep-16 23:31 257 17.2
2020-Sep-16 23:15 257 17.2
2020-Sep-16 23:00 257 17.8
2020-Sep-16 22:45 257 17.8
2020-Sep-16 22:30 257 17.8
2020-Sep-16 22:15 257 18.3
2020-Sep-16 22:00 257 18.3
2020-Sep-16 21:45 257 18.9
2020-Sep-16 21:30 257 18.9
2020-Sep-16 21:15 257 18.9
2020-Sep-16 21:00 257 19.4
2020-Sep-16 20:45 257 19.4
2020-Sep-16 20:30 257 20.0
2020-Sep-16 20:15 257 20.6
2020-Sep-16 20:02 257 20.6
2020-Sep-16 19:47 257 21.1
2020-Sep-16 19:31 257 21.7
2020-Sep-16 19:18 257 22.2
2020-Sep-16 19:02 257 0 gusting 2 22.8
2020-Sep-16 18:48 257 0 gusting 1 22.8
2020-Sep-16 18:31 257 0 gusting 2 23.3
2020-Sep-16 18:16 257 23.9
2020-Sep-16 18:03 257 24.4
2020-Sep-16 17:47 257 25.0
2020-Sep-16 17:33 257 0 gusting 3 25.6
2020-Sep-16 17:16 254 1 gusting 5 26.7
2020-Sep-16 17:02 248 1 gusting 4 27.2
2020-Sep-16 16:46 237 1 gusting 7 27.2
2020-Sep-16 16:31 257 2 gusting 6 27.8
2020-Sep-16 16:17 258 1 gusting 6 28.3
2020-Sep-16 16:01 254 3 gusting 7 28.3
2020-Sep-16 15:47 267 3 gusting 7 28.9
2020-Sep-16 15:31 230 3 gusting 7 28.9
2020-Sep-16 15:17 262 4 gusting 6 29.4
2020-Sep-16 15:02 248 2 gusting 7 29.4
2020-Sep-16 14:46 246 2 gusting 7 30.0
2020-Sep-16 14:31 261 3 gusting 7 30.0
2020-Sep-16 14:16 268 1 gusting 8 30.0
2020-Sep-16 14:01 275 2 gusting 7 30.0
2020-Sep-16 13:46 316 5 gusting 9 30.0
2020-Sep-16 13:31 279 3 gusting 9 30.0
2020-Sep-16 13:16 267 3 gusting 8 30.0
2020-Sep-16 13:01 248 3 gusting 10 29.4
2020-Sep-16 12:46 251 2 gusting 8 29.4
2020-Sep-16 12:30 257 2 gusting 8 29.4
2020-Sep-16 12:15 258 4 gusting 10 29.4
2020-Sep-16 12:00 288 1 gusting 7 29.4
2020-Sep-16 11:45 244 1 gusting 8 29.4
2020-Sep-16 11:30 261 1 gusting 6 28.9
2020-Sep-16 11:15 265 4 gusting 8 28.9
2020-Sep-16 11:00 234 3 gusting 6 28.3
2020-Sep-16 10:45 256 1 gusting 5 28.3
2020-Sep-16 10:30 277 1 gusting 7 28.3
2020-Sep-16 10:15 263 1 gusting 6 27.8
2020-Sep-16 10:01 250 0 gusting 5 27.2
2020-Sep-16 09:46 293 0 gusting 2 27.2
2020-Sep-16 09:31 279 26.7
2020-Sep-16 09:16 266 26.1
2020-Sep-16 09:01 255 0 gusting 2 25.0
2020-Sep-16 08:46 255 23.9
2020-Sep-16 08:30 255 22.2
2020-Sep-16 08:15 255 21.1
2020-Sep-16 08:00 255 19.4